Regional Weather Roundup
Issued by NWS New Orleans/Baton Rouge, LA

Home | Current Version | Previous Version | Text Only | Print | Product List | Glossary On
Versions: 1 2 3 4 5 6 7 8 9 10 11 12 13 14 15 16 17 18 19 20 21 22 23 24 25 26 27 28 29 30 31 32 33 34 35 36 37 38 39 40 41 42 43 44 45 46 47 48 49 50
185
ASUS44 KLIX 241901
RWRLIX
NEW ORLEANS REGIONAL WEATHER ROUNDUP
NATIONAL WEATHER SERVICE NEW ORLEANS LA
200 PM CDT THU APR 24 2014

NOTE: "FAIR" INDICATES FEW OR NO CLOUDS BELOW 12,000 FEET WITH NO
      SIGNIFICANT WEATHER AND/OR OBSTRUCTIONS TO VISIBILITY.
      SKY/WX - SKY CONDITION AND SIGNIFICANT WEATHER.
      TMP - AIR TEMPERATURE.     DP    - DEWPOINT TEMPERATURE.
      RH  - RELATIVE HUMIDITY.   PRES  - PRESSURE.
      HI  - HEAT INDEX.          WCI   - WIND CHILL INDEX.

*  THESE STATIONS ARE NOT NWS OR FAA STATIONS AND ARE NOT UNDER
   NWS QUALITY CONTROL.

LAZ038-040-048-061>063-065>067-069-242000-
SOUTHEAST LOUISIANA

CITY           SKY/WX    TMP DP  RH WIND       PRES   REMARKS
N.O. AUDUBON     N/A     84  66  53 MISG        N/A
N.O. INTL ARPT PTSUNNY   81  66  60 S12       29.93F
N.O. LAKEFRONT PTSUNNY   78  67  68 NE7       29.94F
N.O. DOWNTOWN*   N/A     82  61  47 S12G17    29.93F
SLIDELL        MOSUNNY   80  62  54 SW10G17   29.94F
BATON ROUGE    PTSUNNY   83  63  50 SW13G20   29.93S
BOOTHVILLE     MOSUNNY   75  65  70 S9        29.97F
BELLE CHASSE   PTSUNNY   79  64  60 S10       29.94F
BOGALUSA*        N/A     83  58  41 SW12G17   29.95S
GALLIANO*      NOT AVBL
NEW ROADS*     NOT AVBL
GONZALES*      MOCLDY    82  65  58 SW7       29.92F
HAMMOND*       NOT AVBL
HOUMA*         PTSUNNY   79  64  61 S14       29.95F
PORT FOURCHON* MOCLDY    75  68  78 S13       29.99S

$$

MSZ070-080>082-242000-
SOUTHERN MISSISSIPPI

CITY           SKY/WX    TMP DP  RH WIND       PRES   REMARKS
MCCOMB         MOSUNNY   81  60  48 S16       29.93F
GULFPORT       MOSUNNY   79  64  60 S9        29.96S HAZE
BILOXI         MOSUNNY   76  65  68 S8        29.97F
PASCAGOULA     MOSUNNY   78  65  63 VRB6G16   29.96F
STENNIS ARPT*  MOSUNNY   79  61  53 S12G17    29.96F

$$

COASTAL OBSERVATIONS
LAKE AND NEARSHORE STATIONS

STATION/POSITION TIME  TEMP    WIND        PRES    WAVE
                       AIR SEA DIR/SP/G            HT/PER
                 (UTC) (F)     (DEG/KT/KT) (MB)    (FT/S)
PASCAGOULA       1800   75     200/  7/ 11 1014.5
WAVELAND YACHT   1800   72 75  160/ 10/ 12 1014.3
GRAND ISLE       1800   74 72  160/  6/ 10 1015.5
SOUTHWEST PASS   1800   74 61  170/  6/  8 1015.5
NEW CANAL        1800   79 72  150/  2/  6 1014.7
SHELL BEACH      1800   76 69  160/  8/ 11 1014.5

OFFSHORE STATIONS

STATION/POSITION TIME  TEMP    WIND        PRES    WAVE
                       AIR SEA DIR/SP/G            HT/PER
                 (UTC) (F)     (DEG/KT/KT) (MB)    (FT/S)
64 S DAUPHIN ISL 1829   71 75  170/  6/  8 1015.2

$$




USA.gov is the U.S. government's official web portal to all federal, state and local government web resources and services.